Fairbanks, AK

2:22 AM AKDT on March 25, 2017 (GMT -0800)
Fairbanks International

Weather History for PAFA - July, 2014

Change the Weather History Date:

Saturday, July 12, 2014

  Actual Average Record
Temperature  
Mean Temperature 65 °F 63 °F  
Max Temperature 76 °F 74 °F 89 °F (1940)
Min Temperature 54 °F 53 °F 33 °F (1922)
Degree Days  
Heating Degree Days 0 3  
Month to date heating degree days 15 36  
Since 1 June heating degree days 207 196  
Since 1 July heating degree days 15 36  
Cooling Degree Days 0 1  
Month to date cooling degree days 19 16  
Year to date cooling degree days 20 40  
Since 1 June cooling degree days 20 39  
Growing Degree Days 14 (Base 50)    
Moisture  
Dew Point 48 °F    
Average Humidity 54    
Maximum Humidity 87    
Minimum Humidity 25    
Precipitation  
Precipitation 0.08 in 0.07 in 0.99 in (1962)
Month to date precipitation 4.58 0.76  
Year to date precipitation 9.23 4.29  
Snow  
Snow 0.00 in 0.00 in 0.00 in (2002)
Month to date snowfall 0.0 0.0  
Since 1 June snowfall 0.0 0.0  
Since 1 July snowfall 0.0 0.0  
Snow Depth 0.00 in    
Sea Level Pressure  
Sea Level Pressure 29.78 in    
Wind  
Wind Speed 4 mph (WSW)    
Max Wind Speed 16 mph    
Max Gust Speed -    
Visibility 10 miles    
Events Rain    
T = Trace of Precipitation, MM = Missing Value Source: NWS Daily Summary

Daily Weather History Graph

Daily Weather History Graph

Search for Another Location

Airport or City:

Trip Planner

Search our weather history database for the weather conditions in past years. The results will help you decide how hot, cold, wet, or windy it might be!

Date:

Astronomy

Jul. 12, 2014 Rise Set
Actual Time 3:44 AM AKDT 12:07 AM AKDT
Civil Twilight Sun does not rise Sun does not rise
Nautical Twilight Sun does not rise Sun does not rise
Astronomical Twilight Sun does not rise Sun does not rise
Moon 10:59 PM AKDT (7/12) 5:16 AM AKDT (7/12)
Length of Visible Light 24h 00m
Length of Day
20h 23m
Full, 100% of the Moon is Illuminated
Jul 12
Full
Jul 18
Last Quarter
Jul 26
New
Aug 3
First Quarter
Aug 10
Full

Hourly Weather History & Observations

Time (AKDT) Temp. Dew Point Humidity Pressure Visibility Wind Dir Wind Speed Gust Speed Precip Events Conditions
12:53 AM 59.0 °F 53.1 °F 81% 29.67 in 10.0 mi Calm Calm - N/A   Mostly Cloudy
1:53 AM 57.0 °F 53.1 °F 87% 29.68 in 10.0 mi Calm Calm - N/A   Scattered Clouds
2:53 AM 57.0 °F 53.1 °F 87% 29.69 in 10.0 mi East 3.5 mph - N/A   Mostly Cloudy
3:53 AM 55.9 °F 52.0 °F 87% 29.71 in 10.0 mi North 3.5 mph - N/A   Mostly Cloudy
4:53 AM 55.0 °F 50.0 °F 83% 29.73 in 10.0 mi NE 4.6 mph - N/A   Mostly Cloudy
5:53 AM 57.0 °F 50.0 °F 77% 29.74 in 10.0 mi East 3.5 mph - N/A   Mostly Cloudy
6:53 AM 57.9 °F 48.9 °F 72% 29.76 in 10.0 mi Calm Calm - N/A   Scattered Clouds
7:53 AM 60.1 °F 48.9 °F 67% 29.78 in 10.0 mi Calm Calm - N/A   Scattered Clouds
8:53 AM 63.0 °F 51.1 °F 65% 29.79 in 10.0 mi SE 4.6 mph - N/A   Mostly Cloudy
9:53 AM 68.0 °F 46.9 °F 47% 29.79 in 10.0 mi SSW 9.2 mph - N/A   Mostly Cloudy
10:53 AM 70.0 °F 50.0 °F 49% 29.80 in 10.0 mi SW 6.9 mph - N/A   Mostly Cloudy
11:53 AM 71.1 °F 50.0 °F 47% 29.81 in 10.0 mi SSW 8.1 mph - N/A   Mostly Cloudy
12:53 PM 71.1 °F 48.9 °F 45% 29.82 in 10.0 mi WSW 10.4 mph - N/A   Mostly Cloudy
1:53 PM 72.0 °F 48.0 °F 43% 29.82 in 10.0 mi Variable 4.6 mph - N/A   Mostly Cloudy
2:53 PM 73.0 °F 46.9 °F 39% 29.82 in 10.0 mi SSW 8.1 mph - N/A   Mostly Cloudy
3:53 PM 75.0 °F 46.0 °F 36% 29.81 in 10.0 mi West 8.1 mph - N/A   Scattered Clouds
4:53 PM 75.0 °F 44.1 °F 33% 29.81 in 10.0 mi Variable 6.9 mph - N/A   Scattered Clouds
5:53 PM 75.0 °F 43.0 °F 32% 29.81 in 10.0 mi SW 5.8 mph - N/A   Scattered Clouds
6:53 PM 73.9 °F 44.1 °F 34% 29.81 in 10.0 mi West 5.8 mph - N/A   Scattered Clouds
7:53 PM 75.0 °F 44.1 °F 33% 29.81 in 10.0 mi West 5.8 mph - N/A   Scattered Clouds
8:53 PM 73.9 °F 43.0 °F 33% 29.81 in 10.0 mi Calm Calm - N/A   Mostly Cloudy
9:53 PM 73.0 °F 46.0 °F 38% 29.81 in 10.0 mi North 5.8 mph - N/A   Mostly Cloudy
10:53 PM 71.1 °F 46.9 °F 42% 29.82 in 10.0 mi NW 3.5 mph - N/A   Mostly Cloudy
11:53 PM 63.0 °F 51.1 °F 65% 29.86 in 10.0 mi West 16.1 mph - 0.07 in Rain Light Rain
11:57 PM 63.0 °F 51.1 °F 65% 29.84 in 10.0 mi WNW 15.0 mph - 0.01 in Rain Light Rain